ARIANE 2 DEB, 33568

Orbit data source: Space-Track

ARIANE 2 DEB, 33568 is space debris in HEO originally from a launch on Fri, 27 Jan 1989 UTC launched from the French Guiana (FRGUI). Debris objects in space refer to the collection of defunct objects orbiting the Earth. Examples of debris include non-operational satellites, rocket bodies, and fragments generated from explosions, collisions, or faulty payload assembly.

Loading next visibility...
Identifier
33568, 1989-006BL
Orbit
HEO
Country
Flag of FRFR
Related business
Manufacturer
EADS/LV
Mission
Spacecraft
Bus & Motor
Unknown
Mass
Unknown
Launch date (UTC)
1989-01-27 (37 years ago)
Launch vehicle
Unknown
Launch site
French Guiana (FRGUI)
Object type
Payload
Rocket body
Debris
Shape & HBR
Unknown shape, 1.1 m
Radar Cross Section
Medium (>0.1 m² and <1 m²)

Expand to show TLE details & history
Last TLE update: 1 day ago

TLE from 1 day ago
0 ARIANE 2 DEB
1 33568U 89006BL  25349.53463121  .00000050  00000-0  17593-3 0  9999
2 33568   8.3418  41.6940 7175411 143.9078 297.3069  2.30206575111990
Epoch: 2025-12-15T12:49Z
TLE epoch observation values (Epoch: 2025-12-15T12:49:52.136Z)
Latitude
0.00003°
Longitude
124.65157°
Altitude
21,705.33 km
Speed
3.455 km/s
True Right ascension
02h 46m 12s
True Declination
0° 00' 00"
Sunlit
Object was in daylight at epoch
Visualization orbit readout
Latitude
Unknown
Longitude
Unknown
Altitude
Unknown
Speed
Unknown
Apparent Right ascension
Unknown
Apparent Declination
Unknown
Sunlit
N/A
Visualization observer readout
Local Sidereal Time
12:24:18
Azimuth
Unknown
Elevation
Unknown
Doppler factor
Unknown
Orbital elements
Apogee altitude
35,243.979 km
Perigee altitude
466.844 km
Semi-major axis
24,233.549 km
Eccentricity
0.71754
Inclination
8.3418°
RAAN
41.694°
Arg. of periapsis
143.9078°
True anomaly
215.88531°
Mean anomaly
297.3069°
Eccentric anomaly
257.21422°
Mean motion
0.57533 °/min
Orbital period
625.73 mins
BSTAR
0.00017593
Loading maneuver chart data...
Computing Atmospheric mass density...
Loading historical data...
Loading historical data...
Loading historical data...
Loading historical data...
Loading historical data...
Loading historical data...
Loading historical data...

Documentation

Showing up to 5 results
|